Wetterdaten: Donnerstag, 18.09.2014
Datum Zeit Temp. A. Feuchte A. Luftdruck Regen Wind Richtung Richtung Sonnenschein ET UV Solar Taupunkt Windchill Windben Empfang
18.09.2014 00:00 13,4 C 75 % 1011,0 hPa 0,0 l/m 1,4 km/h (1 Bft) S-SO 153 0 min 0,000 mm 0,0 UV-I 0 W/m 9,1 C 13,4 C 4,0 km/h (1 Bft) 0,00 %
18.09.2014 00:15 13,1 C 76 % 1011,3 hPa 0,0 l/m 0,0 km/h (0 Bft) SO 129 0 min 0,000 mm 0,0 UV-I 0 W/m 9,0 C 13,1 C 0,0 km/h (0 Bft) 0,00 %
18.09.2014 00:30 12,9 C 77 % 1011,2 hPa 0,0 l/m 0,0 km/h (0 Bft) O 98 0 min 0,000 mm 0,0 UV-I 0 W/m 9,0 C 12,9 C 0,0 km/h (0 Bft) 0,00 %
18.09.2014 00:45 12,8 C 77 % 1011,2 hPa 0,0 l/m 0,0 km/h (0 Bft) O-SO 102 0 min 0,000 mm 0,0 UV-I 0 W/m 8,9 C 12,8 C 0,0 km/h (0 Bft) 0,00 %
18.09.2014 01:00 12,8 C 77 % 1011,3 hPa 0,0 l/m 2,2 km/h (1 Bft) O-SO 106 0 min 0,000 mm 0,0 UV-I 0 W/m 8,9 C 12,8 C 4,0 km/h (1 Bft) 0,00 %
18.09.2014 01:15 12,7 C 77 % 1011,4 hPa 0,0 l/m 0,0 km/h (0 Bft) O-SO 106 0 min 0,000 mm 0,0 UV-I 0 W/m 8,8 C 12,7 C 0,0 km/h (0 Bft) 0,00 %
18.09.2014 01:30 12,5 C 79 % 1011,5 hPa 0,0 l/m 0,0 km/h (0 Bft) O-NO 69 0 min 0,000 mm 0,0 UV-I 0 W/m 9,0 C 12,5 C 0,0 km/h (0 Bft) 0,00 %
18.09.2014 01:45 12,3 C 79 % 1011,2 hPa 0,0 l/m 0,0 km/h (0 Bft) N-NO 33 0 min 0,000 mm 0,0 UV-I 0 W/m 8,8 C 12,3 C 0,0 km/h (0 Bft) 0,00 %
18.09.2014 02:00 12,0 C 79 % 1011,4 hPa 0,0 l/m 0,0 km/h (0 Bft) O-SO 103 0 min 0,000 mm 0,0 UV-I 0 W/m 8,5 C 12,0 C 0,0 km/h (0 Bft) 0,00 %
18.09.2014 02:15 11,9 C 79 % 1011,2 hPa 0,0 l/m 0,0 km/h (0 Bft) SO 137 0 min 0,000 mm 0,0 UV-I 0 W/m 8,4 C 11,9 C 0,0 km/h (0 Bft) 0,00 %
18.09.2014 02:30 11,6 C 80 % 1011,5 hPa 0,0 l/m 0,0 km/h (0 Bft) SO 136 0 min 0,000 mm 0,0 UV-I 0 W/m 8,3 C 11,6 C 0,0 km/h (0 Bft) 0,00 %
18.09.2014 02:45 11,3 C 82 % 1011,6 hPa 0,0 l/m 0,0 km/h (0 Bft) S 176 0 min 0,000 mm 0,0 UV-I 0 W/m 8,3 C 11,3 C 0,0 km/h (0 Bft) 0,00 %
18.09.2014 03:00 10,9 C 84 % 1011,6 hPa 0,0 l/m 0,0 km/h (0 Bft) S 176 0 min 0,000 mm 0,0 UV-I 0 W/m 8,3 C 10,9 C 0,0 km/h (0 Bft) 0,00 %
18.09.2014 03:15 10,7 C 85 % 1011,7 hPa 0,0 l/m 0,0 km/h (0 Bft) S 176 0 min 0,000 mm 0,0 UV-I 0 W/m 8,3 C 10,7 C 0,0 km/h (0 Bft) 0,00 %
18.09.2014 03:30 10,7 C 84 % 1011,7 hPa 0,0 l/m 0,0 km/h (0 Bft) S 172 0 min 0,000 mm 0,0 UV-I 0 W/m 8,1 C 10,7 C 0,0 km/h (0 Bft) 0,00 %
18.09.2014 03:45 10,8 C 84 % 1011,7 hPa 0,0 l/m 0,0 km/h (0 Bft) S 172 0 min 0,000 mm 0,0 UV-I 0 W/m 8,2 C 10,8 C 0,0 km/h (0 Bft) 0,00 %
18.09.2014 04:00 10,6 C 85 % 1011,6 hPa 0,0 l/m 0,0 km/h (0 Bft) S 172 0 min 0,000 mm 0,0 UV-I 0 W/m 8,2 C 10,6 C 0,0 km/h (0 Bft) 0,00 %
18.09.2014 04:15 10,4 C 86 % 1011,8 hPa 0,0 l/m 0,0 km/h (0 Bft) S 173 0 min 0,000 mm 0,0 UV-I 0 W/m 8,2 C 10,4 C 0,0 km/h (0 Bft) 0,00 %
18.09.2014 04:30 10,2 C 87 % 1011,8 hPa 0,0 l/m 0,0 km/h (0 Bft) S 173 0 min 0,000 mm 0,0 UV-I 0 W/m 8,1 C 10,2 C 0,0 km/h (0 Bft) 0,00 %
18.09.2014 04:45 10,0 C 88 % 1011,8 hPa 0,0 l/m 0,0 km/h (0 Bft) S 173 0 min 0,000 mm 0,0 UV-I 0 W/m 8,1 C 10,0 C 0,0 km/h (0 Bft) 0,00 %
18.09.2014 05:00 9,7 C 89 % 1011,9 hPa 0,0 l/m 0,0 km/h (0 Bft) S 173 0 min 0,000 mm 0,0 UV-I 0 W/m 8,0 C 9,7 C 0,0 km/h (0 Bft) 0,00 %
18.09.2014 05:15 9,4 C 91 % 1011,9 hPa 0,0 l/m 0,0 km/h (0 Bft) S 173 0 min 0,000 mm 0,0 UV-I 0 W/m 8,0 C 9,4 C 0,0 km/h (0 Bft) 0,00 %
18.09.2014 05:30 9,2 C 91 % 1011,9 hPa 0,0 l/m 0,0 km/h (0 Bft) S 173 0 min 0,000 mm 0,0 UV-I 0 W/m 7,8 C 9,2 C 0,0 km/h (0 Bft) 0,00 %
18.09.2014 05:45 8,9 C 91 % 1012,1 hPa 0,0 l/m 0,0 km/h (0 Bft) S 179 0 min 0,000 mm 0,0 UV-I 0 W/m 7,5 C 8,9 C 0,0 km/h (0 Bft) 0,00 %
18.09.2014 06:00 8,8 C 92 % 1012,2 hPa 0,0 l/m 0,0 km/h (0 Bft) S 179 0 min 0,000 mm 0,0 UV-I 0 W/m 7,6 C 8,8 C 0,0 km/h (0 Bft) 0,00 %
18.09.2014 06:15 8,7 C 93 % 1012,3 hPa 0,0 l/m 0,0 km/h (0 Bft) S 179 0 min 0,000 mm 0,0 UV-I 0 W/m 7,6 C 8,7 C 0,0 km/h (0 Bft) 0,00 %
18.09.2014 06:30 8,4 C 92 % 1012,5 hPa 0,0 l/m 0,0 km/h (0 Bft) S 179 0 min 0,000 mm 0,0 UV-I 0 W/m 7,2 C 8,4 C 0,0 km/h (0 Bft) 0,00 %
18.09.2014 06:45 8,3 C 93 % 1012,5 hPa 0,0 l/m 0,0 km/h (0 Bft) S 179 0 min 0,000 mm 1,0 UV-I 2 W/m 7,2 C 8,3 C 0,0 km/h (0 Bft) 0,00 %
18.09.2014 07:00 8,3 C 93 % 1012,5 hPa 0,0 l/m 0,0 km/h (0 Bft) S 179 15 min 0,000 mm 1,0 UV-I 29 W/m 7,2 C 8,3 C 0,0 km/h (0 Bft) 0,00 %
18.09.2014 07:15 9,7 C 92 % 1012,3 hPa 0,0 l/m 0,0 km/h (0 Bft) S 179 15 min 0,000 mm 1,0 UV-I 50 W/m 8,5 C 9,7 C 0,0 km/h (0 Bft) 0,00 %
18.09.2014 07:30 11,5 C 84 % 1012,1 hPa 0,0 l/m 0,0 km/h (0 Bft) S 179 0 min 0,000 mm 1,0 UV-I 63 W/m 8,9 C 11,5 C 0,0 km/h (0 Bft) 0,00 %
18.09.2014 07:45 12,8 C 78 % 1011,7 hPa 0,0 l/m 0,0 km/h (0 Bft) N 355 0 min 0,000 mm 2,0 UV-I 72 W/m 9,1 C 12,8 C 0,0 km/h (0 Bft) 0,00 %
18.09.2014 08:00 13,6 C 74 % 1011,6 hPa 0,0 l/m 1,4 km/h (1 Bft) S-SO 163 0 min 0,000 mm 2,0 UV-I 91 W/m 9,1 C 13,6 C 4,0 km/h (1 Bft) 0,00 %
18.09.2014 08:15 14,7 C 70 % 1011,4 hPa 0,0 l/m 0,4 km/h (0 Bft) O 99 0 min 0,000 mm 2,0 UV-I 117 W/m 9,3 C 14,7 C 4,0 km/h (1 Bft) 0,00 %
18.09.2014 08:30 14,7 C 71 % 1011,5 hPa 0,0 l/m 0,4 km/h (0 Bft) O 98 0 min 0,000 mm 2,0 UV-I 141 W/m 9,5 C 14,7 C 4,0 km/h (1 Bft) 0,00 %
18.09.2014 08:45 15,4 C 68 % 1011,2 hPa 0,0 l/m 0,0 km/h (0 Bft) O-SO 107 0 min 0,000 mm 2,0 UV-I 172 W/m 9,5 C 15,4 C 0,0 km/h (0 Bft) 0,00 %
18.09.2014 09:00 15,0 C 70 % 1011,4 hPa 0,0 l/m 0,0 km/h (0 Bft) O 81 0 min 0,000 mm 3,0 UV-I 174 W/m 9,6 C 15,0 C 0,0 km/h (0 Bft) 0,00 %
18.09.2014 09:15 15,7 C 69 % 1011,2 hPa 0,0 l/m 2,9 km/h (1 Bft) O-SO 107 0 min 0,000 mm 3,0 UV-I 196 W/m 10,0 C 15,7 C 4,0 km/h (1 Bft) 0,00 %
18.09.2014 09:30 15,5 C 69 % 1011,7 hPa 0,0 l/m 0,4 km/h (0 Bft) NO 54 0 min 0,000 mm 3,0 UV-I 209 W/m 9,8 C 15,5 C 4,0 km/h (1 Bft) 0,00 %
18.09.2014 09:45 16,1 C 66 % 1011,7 hPa 0,0 l/m 0,4 km/h (0 Bft) N-NO 30 0 min 0,000 mm 3,0 UV-I 246 W/m 9,7 C 16,1 C 4,0 km/h (1 Bft) 0,00 %
18.09.2014 10:00 16,6 C 65 % 1011,7 hPa 0,0 l/m 2,9 km/h (1 Bft) O-SO 119 0 min 0,000 mm 4,0 UV-I 251 W/m 10,0 C 16,6 C 4,0 km/h (1 Bft) 0,00 %
18.09.2014 10:15 17,6 C 63 % 1011,3 hPa 0,0 l/m 0,7 km/h (0 Bft) NO 36 15 min 0,000 mm 4,0 UV-I 315 W/m 10,5 C 17,6 C 4,0 km/h (1 Bft) 0,00 %
18.09.2014 10:30 17,8 C 64 % 1011,0 hPa 0,0 l/m 0,0 km/h (0 Bft) NW 305 0 min 0,000 mm 4,0 UV-I 303 W/m 10,9 C 17,8 C 0,0 km/h (0 Bft) 0,00 %
18.09.2014 10:45 18,2 C 64 % 1011,1 hPa 0,0 l/m 0,7 km/h (0 Bft) O 80 15 min 0,000 mm 4,0 UV-I 320 W/m 11,3 C 18,2 C 4,0 km/h (1 Bft) 0,00 %
18.09.2014 11:00 18,4 C 62 % 1010,8 hPa 0,0 l/m 0,0 km/h (0 Bft) O-SO 110 15 min 0,000 mm 5,0 UV-I 384 W/m 11,0 C 18,4 C 0,0 km/h (0 Bft) 0,00 %
18.09.2014 11:15 19,4 C 61 % 1010,6 hPa 0,0 l/m 1,8 km/h (1 Bft) N-NO 24 15 min 0,000 mm 5,0 UV-I 380 W/m 11,7 C 19,4 C 4,0 km/h (1 Bft) 0,00 %
18.09.2014 11:30 20,1 C 59 % 1010,5 hPa 0,0 l/m 0,4 km/h (0 Bft) SO 127 0 min 0,000 mm 5,0 UV-I 344 W/m 11,8 C 20,1 C 4,0 km/h (1 Bft) 0,00 %
18.09.2014 11:45 20,3 C 56 % 1010,2 hPa 0,0 l/m 4,0 km/h (1 Bft) O-SO 123 15 min 0,000 mm 5,0 UV-I 481 W/m 11,2 C 20,3 C 4,0 km/h (1 Bft) 0,00 %
18.09.2014 12:00 20,5 C 59 % 1010,0 hPa 0,0 l/m 0,4 km/h (0 Bft) O 96 15 min 0,000 mm 5,0 UV-I 529 W/m 12,2 C 20,5 C 4,0 km/h (1 Bft) 0,00 %
18.09.2014 12:15 20,5 C 56 % 1009,8 hPa 0,0 l/m 0,0 km/h (0 Bft) O-SO 114 15 min 0,000 mm 5,0 UV-I 556 W/m 11,4 C 20,5 C 0,0 km/h (0 Bft) 0,00 %
18.09.2014 12:30 20,6 C 55 % 1010,3 hPa 0,0 l/m 4,0 km/h (1 Bft) O-SO 108 15 min 0,000 mm 5,0 UV-I 581 W/m 11,2 C 20,6 C 4,0 km/h (1 Bft) 0,00 %
18.09.2014 12:45 20,6 C 57 % 1010,3 hPa 0,0 l/m 2,9 km/h (1 Bft) NO 39 15 min 0,000 mm 5,0 UV-I 612 W/m 11,8 C 20,6 C 4,0 km/h (1 Bft) 0,00 %
18.09.2014 13:00 20,8 C 55 % 1010,2 hPa 0,0 l/m 0,4 km/h (0 Bft) N-NO 26 15 min 0,000 mm 5,0 UV-I 634 W/m 11,4 C 20,8 C 4,0 km/h (1 Bft) 0,00 %
18.09.2014 13:15 21,1 C 54 % 1009,5 hPa 0,0 l/m 1,8 km/h (1 Bft) N 350 15 min 0,000 mm 2,0 UV-I 650 W/m 11,4 C 21,1 C 4,0 km/h (1 Bft) 0,00 %
18.09.2014 13:30 21,1 C 55 % 1009,3 hPa 0,0 l/m 1,8 km/h (1 Bft) W-SW 254 15 min 0,000 mm 2,0 UV-I 659 W/m 11,7 C 21,1 C 4,0 km/h (1 Bft) 0,00 %
18.09.2014 13:45 21,5 C 53 % 1009,4 hPa 0,0 l/m 1,4 km/h (1 Bft) N-NW 332 15 min 0,000 mm 3,0 UV-I 672 W/m 11,5 C 21,5 C 4,0 km/h (1 Bft) 0,00 %
18.09.2014 14:00 21,4 C 56 % 1009,3 hPa 0,0 l/m 2,9 km/h (1 Bft) N 356 15 min 0,000 mm 3,0 UV-I 613 W/m 12,3 C 21,4 C 4,0 km/h (1 Bft) 0,00 %
18.09.2014 14:15 21,4 C 56 % 1009,1 hPa 0,0 l/m 5,8 km/h (2 Bft) N-NW 340 15 min 0,000 mm 3,0 UV-I 613 W/m 12,3 C 21,4 C 11,9 km/h (2 Bft) 0,00 %
18.09.2014 14:30 21,5 C 56 % 1008,8 hPa 0,0 l/m 1,8 km/h (1 Bft) O-NO 58 15 min 0,000 mm 3,0 UV-I 620 W/m 12,3 C 21,5 C 4,0 km/h (1 Bft) 0,00 %
18.09.2014 14:45 21,8 C 54 % 1009,2 hPa 0,0 l/m 0,4 km/h (0 Bft) S 176 15 min 0,000 mm 3,0 UV-I 615 W/m 12,1 C 21,8 C 4,0 km/h (1 Bft) 0,00 %
18.09.2014 15:00 22,0 C 53 % 1008,9 hPa 0,0 l/m 6,5 km/h (2 Bft) NO 49 15 min 0,000 mm 2,0 UV-I 610 W/m 12,0 C 22,0 C 11,9 km/h (2 Bft) 0,00 %
18.09.2014 15:15 22,0 C 56 % 1008,8 hPa 0,0 l/m 2,2 km/h (1 Bft) SO 129 15 min 0,000 mm 2,0 UV-I 630 W/m 12,8 C 22,0 C 7,9 km/h (2 Bft) 0,00 %
18.09.2014 15:30 22,1 C 53 % 1008,6 hPa 0,0 l/m 2,2 km/h (1 Bft) N 352 15 min 0,000 mm 2,0 UV-I 640 W/m 12,1 C 22,1 C 4,0 km/h (1 Bft) 0,00 %
18.09.2014 15:45 22,2 C 54 % 1008,4 hPa 0,0 l/m 6,5 km/h (2 Bft) N-NO 28 15 min 0,000 mm 2,0 UV-I 620 W/m 12,4 C 22,2 C 11,9 km/h (2 Bft) 0,00 %
18.09.2014 16:00 22,2 C 54 % 1008,6 hPa 0,0 l/m 6,8 km/h (2 Bft) O 83 15 min 0,000 mm 2,0 UV-I 610 W/m 12,4 C 22,1 C 11,9 km/h (2 Bft) 0,00 %
18.09.2014 16:15 22,3 C 53 % 1008,7 hPa 0,0 l/m 0,7 km/h (0 Bft) N-NW 344 15 min 0,000 mm 2,0 UV-I 605 W/m 12,2 C 22,3 C 4,0 km/h (1 Bft) 0,00 %
18.09.2014 16:30 22,2 C 52 % 1008,3 hPa 0,0 l/m 6,8 km/h (2 Bft) O 90 15 min 0,000 mm 1,0 UV-I 600 W/m 11,9 C 22,1 C 7,9 km/h (2 Bft) 0,00 %
18.09.2014 16:45 22,5 C 52 % 1008,3 hPa 0,0 l/m 0,0 km/h (0 Bft) O 97 15 min 0,000 mm 1,0 UV-I 620 W/m 12,1 C 22,5 C 0,0 km/h (0 Bft) 0,00 %
18.09.2014 17:00 22,8 C 52 % 1008,3 hPa 0,0 l/m 5,4 km/h (1 Bft) O-NO 74 15 min 0,000 mm 1,0 UV-I 617 W/m 12,4 C 22,8 C 7,9 km/h (2 Bft) 0,00 %
18.09.2014 17:15 22,6 C 51 % 1008,4 hPa 0,0 l/m 9,4 km/h (2 Bft) O-SO 110 15 min 0,000 mm 1,0 UV-I 569 W/m 11,9 C 21,7 C 11,9 km/h (2 Bft) 0,00 %
18.09.2014 17:30 22,1 C 50 % 1008,6 hPa 0,0 l/m 2,9 km/h (1 Bft) SO 127 15 min 0,000 mm 1,0 UV-I 419 W/m 11,2 C 22,1 C 4,0 km/h (1 Bft) 0,00 %
18.09.2014 17:45 21,7 C 51 % 1009,0 hPa 0,0 l/m 9,4 km/h (2 Bft) O 80 15 min 0,000 mm 1,0 UV-I 241 W/m 11,1 C 20,7 C 11,9 km/h (2 Bft) 0,00 %
18.09.2014 18:00 21,2 C 53 % 1008,9 hPa 0,0 l/m 7,2 km/h (2 Bft) O-NO 77 15 min 0,000 mm 0,0 UV-I 368 W/m 11,2 C 20,9 C 11,9 km/h (2 Bft) 0,00 %
18.09.2014 18:15 21,1 C 53 % 1008,9 hPa 0,0 l/m 6,8 km/h (2 Bft) S 175 15 min 0,000 mm 0,0 UV-I 342 W/m 11,1 C 21,0 C 11,9 km/h (2 Bft) 0,00 %
18.09.2014 18:30 20,7 C 57 % 1009,8 hPa 0,0 l/m 0,0 km/h (0 Bft) O-SO 113 15 min 0,000 mm 0,0 UV-I 152 W/m 11,9 C 20,7 C 0,0 km/h (0 Bft) 0,00 %
18.09.2014 18:45 20,0 C 60 % 1009,9 hPa 0,0 l/m 5,8 km/h (2 Bft) O 93 15 min 0,000 mm 0,0 UV-I 63 W/m 12,0 C 20,0 C 7,9 km/h (2 Bft) 0,00 %
18.09.2014 19:00 19,2 C 62 % 1010,2 hPa 0,0 l/m 1,8 km/h (1 Bft) O 92 0 min 0,000 mm 0,0 UV-I 5 W/m 11,7 C 19,2 C 4,0 km/h (1 Bft) 0,00 %
18.09.2014 19:15 18,4 C 64 % 1010,2 hPa 0,0 l/m 0,4 km/h (0 Bft) NW 317 0 min 0,000 mm 0,0 UV-I 0 W/m 11,5 C 18,4 C 4,0 km/h (1 Bft) 0,00 %
18.09.2014 19:30 17,9 C 65 % 1010,3 hPa 0,0 l/m 4,3 km/h (1 Bft) SW 216 0 min 0,000 mm 0,0 UV-I 0 W/m 11,2 C 17,9 C 7,9 km/h (2 Bft) 0,00 %
18.09.2014 19:45 17,6 C 66 % 1010,6 hPa 0,0 l/m 0,0 km/h (0 Bft) O-SO 106 0 min 0,000 mm 0,0 UV-I 0 W/m 11,2 C 17,6 C 0,0 km/h (0 Bft) 0,00 %
18.09.2014 20:00 17,1 C 68 % 1011,0 hPa 0,0 l/m 0,0 km/h (0 Bft) O-SO 116 0 min 0,000 mm 0,0 UV-I 0 W/m 11,1 C 17,1 C 0,0 km/h (0 Bft) 0,00 %
18.09.2014 20:15 16,9 C 68 % 1010,9 hPa 0,0 l/m 2,2 km/h (1 Bft) O 91 0 min 0,000 mm 0,0 UV-I 0 W/m 11,0 C 16,9 C 4,0 km/h (1 Bft) 0,00 %
18.09.2014 20:30 16,9 C 67 % 1010,9 hPa 0,0 l/m 1,8 km/h (1 Bft) S-SO 152 0 min 0,000 mm 0,0 UV-I 0 W/m 10,7 C 16,9 C 4,0 km/h (1 Bft) 0,00 %
18.09.2014 20:45 16,7 C 67 % 1010,9 hPa 0,0 l/m 0,4 km/h (0 Bft) O 87 0 min 0,000 mm 0,0 UV-I 0 W/m 10,5 C 16,7 C 4,0 km/h (1 Bft) 0,00 %
18.09.2014 21:00 16,4 C 69 % 1011,4 hPa 0,0 l/m 0,0 km/h (0 Bft) NO 52 0 min 0,000 mm 0,0 UV-I 0 W/m 10,7 C 16,4 C 0,0 km/h (0 Bft) 0,00 %
18.09.2014 21:15 16,0 C 69 % 1011,0 hPa 0,0 l/m 1,8 km/h (1 Bft) SO 145 0 min 0,000 mm 0,0 UV-I 0 W/m 10,3 C 16,0 C 4,0 km/h (1 Bft) 0,00 %
18.09.2014 21:30 16,1 C 69 % 1011,3 hPa 0,0 l/m 0,4 km/h (0 Bft) O-SO 102 0 min 0,000 mm 0,0 UV-I 0 W/m 10,4 C 16,1 C 4,0 km/h (1 Bft) 0,00 %
18.09.2014 21:45 15,5 C 71 % 1011,6 hPa 0,0 l/m 0,0 km/h (0 Bft) O-SO 114 0 min 0,000 mm 0,0 UV-I 0 W/m 10,3 C 15,5 C 0,0 km/h (0 Bft) 0,00 %
18.09.2014 22:00 15,1 C 73 % 1011,7 hPa 0,0 l/m 1,4 km/h (1 Bft) O-SO 121 0 min 0,000 mm 0,0 UV-I 0 W/m 10,3 C 15,1 C 4,0 km/h (1 Bft) 0,00 %
18.09.2014 22:15 15,1 C 73 % 1011,8 hPa 0,0 l/m 0,4 km/h (0 Bft) SO 133 0 min 0,000 mm 0,0 UV-I 0 W/m 10,3 C 15,1 C 4,0 km/h (1 Bft) 0,00 %
18.09.2014 22:30 14,9 C 74 % 1011,7 hPa 0,0 l/m 0,0 km/h (0 Bft) SO 136 0 min 0,000 mm 0,0 UV-I 0 W/m 10,3 C 14,9 C 0,0 km/h (0 Bft) 0,00 %
18.09.2014 22:45 14,8 C 74 % 1011,8 hPa 0,0 l/m 0,0 km/h (0 Bft) S 171 0 min 0,000 mm 0,0 UV-I 0 W/m 10,2 C 14,8 C 0,0 km/h (0 Bft) 0,00 %
18.09.2014 23:00 14,2 C 78 % 1012,1 hPa 0,0 l/m 0,0 km/h (0 Bft) O-SO 109 0 min 0,000 mm 0,0 UV-I 0 W/m 10,4 C 14,2 C 0,0 km/h (0 Bft) 0,00 %
18.09.2014 23:15 13,7 C 82 % 1012,2 hPa 0,0 l/m 0,0 km/h (0 Bft) W-SW 251 0 min 0,000 mm 0,0 UV-I 0 W/m 10,7 C 13,7 C 0,0 km/h (0 Bft) 0,00 %
18.09.2014 23:30 13,4 C 82 % 1012,3 hPa 0,0 l/m 0,0 km/h (0 Bft) W-SW 251 0 min 0,000 mm 0,0 UV-I 0 W/m 10,4 C 13,4 C 0,0 km/h (0 Bft) 0,00 %
18.09.2014 23:45 13,0 C 83 % 1012,5 hPa 0,0 l/m 0,0 km/h (0 Bft) W-SW 251 0 min 0,000 mm 0,0 UV-I 0 W/m 10,2 C 13,0 C 0,0 km/h (0 Bft) 0,00 %
_ Min-Zeit 06:45 17:30 16:30 - 00:15 - - - - - - 06:30 06:45 00:15 00:00
Minimum _ 8,3 C 50 % 1008,3 hPa - 0,0 km/h (0 Bft) - - - - - - 7,2 C 8,3 C 0,0 km/h (0 Bft) 0,00 %
_ Max-Zeit 17:00 06:15 06:30 00:00 17:15 - - 07:00 00:00 11:00 13:45 15:15 17:00 14:15 00:00
Maximum _ 22,8 C 93 % 1012,5 hPa 0,0 l/m 9,4 km/h
O-SO (2 Bft)
- - 15 min 0,000 mm 5,0 UV-I 672 W/m 12,8 C 22,8 C 11,9 km/h
N-NW (2 Bft)
0,00 %
Durchschnitt _ 16,0 C 70 % 1010,8 hPa #0,0 l/m 1,4 km/h (1 Bft) O-SO - #8:45 h #0,000 mm 2,8 UV-I 388 W/m 10,2 C 16,0 C 2,9 km/h (1 Bft) 0,00 %